This is the latest recevied weather packets stored in our database for station/object OE1HTB-13. If no packets are shown the sender has not sent any weather packets the latest 10 day(s).
| Time | Temp. | Humidity | Pressure | Rain* | Wind** | Luminosity | Snow |
|---|---|---|---|---|---|---|---|
| 1777911373 | 23.89° C | 32% | 1010.1 hPa | 0 mm | - | 32 W/m² | - |
| 1777910472 | 24.44° C | 31% | 1010.2 hPa | 0 mm | - | 39 W/m² | - |
| 1777909572 | 24.44° C | 30% | 1010.3 hPa | 0 mm | - | 44 W/m² | - |
| 1777908672 | 25° C | 30% | 1010.3 hPa | 0 mm | - | 51 W/m² | - |
| 1777907773 | 25.56° C | 30% | 1010.3 hPa | 0 mm | - | 56 W/m² | - |
| 1777906872 | 26.11° C | 30% | 1010.5 hPa | 0 mm | - | 434 W/m² | - |
| 1777905971 | 26.67° C | 29% | 1010.8 hPa | 0 mm | - | 522 W/m² | - |
| 1777905071 | 26.67° C | 29% | 1010.8 hPa | 0 mm | - | 459 W/m² | - |
| 1777904171 | 26.67° C | 29% | 1011 hPa | 0 mm | - | 517 W/m² | - |
| 1777903271 | 26.67° C | 29% | 1011.1 hPa | 0 mm | - | 603 W/m² | - |
| 1777902371 | 26.11° C | 33% | 1011.4 hPa | 0 mm | - | 592 W/m² | - |
| 1777901471 | 25.56° C | 30% | 1011.6 hPa | 0 mm | - | 719 W/m² | - |
| 1777900571 | 26.11° C | 31% | 1011.8 hPa | 0 mm | - | 424 W/m² | - |
| 1777899671 | 26.67° C | 28% | 1012 hPa | 0 mm | - | 613 W/m² | - |
| 1777898770 | 27.22° C | 29% | 1012.1 hPa | 0 mm | - | 800 W/m² | - |
| 1777897870 | 26.67° C | 35% | 1012.2 hPa | 0 mm | - | 766 W/m² | - |
| 1777896970 | 26.11° C | 32% | 1012.5 hPa | 0 mm | - | 802 W/m² | - |
| 1777896070 | 26.11° C | 33% | 1012.4 hPa | 0 mm | - | 816 W/m² | - |
| 1777895170 | 26.11° C | 35% | 1012.6 hPa | 0 mm | - | 703 W/m² | - |
| 1777894270 | 26.67° C | 35% | 1012.8 hPa | 0 mm | - | 830 W/m² | - |
| 1777893375 | 26.67° C | 36% | 1013 hPa | 0 mm | - | 870 W/m² | - |
| 1777892475 | 25° C | 38% | 1013.1 hPa | 0 mm | - | 884 W/m² | - |
| 1777891574 | 25° C | 39% | 1013.3 hPa | 0 mm | - | 766 W/m² | - |
| 1777890674 | 25° C | 41% | 1013.6 hPa | 0 mm | - | 821 W/m² | - |
| 1777889774 | 24.44° C | 39% | 1013.8 hPa | 0 mm | - | 793 W/m² | - |
* Rain latest hour (hover to see other rain measurements)
** Current wind speed in m/s (hover to see current wind gust speed)